$Date,$Time,DM0201B,DM0203B,DM0205B,DM0207B,DM0209B
09/10/99,00:00:01,0,0,0,0,0
09/10/99,00:05:01,439,164,-17,46,958
09/10/99,00:10:01,462,164,-17,44,958
09/10/99,00:15:01,365,176,-17,46,958
09/10/99,00:20:01,408,174,-17,48,958
09/10/99,00:25:01,433,157,-17,50,958
09/10/99,00:30:01,452,168,-17,52,958
09/10/99,00:35:01,377,168,-17,52,958
09/10/99,00:40:01,447,168,-17,52,958
09/10/99,00:45:01,466,168,-17,52,958
09/10/99,00:50:01,425,170,-17,54,958
09/10/99,00:55:01,437,170,-17,58,958
09/10/99,01:00:01,479,170,-17,58,958
09/10/99,01:05:01,510,170,-17,62,958
09/10/99,01:10:01,439,160,-17,62,958
09/10/99,01:15:01,477,160,-17,64,958
09/10/99,01:20:01,457,171,-17,64,958
09/10/99,01:25:01,441,171,-17,60,958
09/10/99,01:30:01,440,173,-17,54,958
09/10/99,01:35:01,385,171,-17,48,958
09/10/99,01:40:01,407,161,-17,42,958
09/10/99,01:45:01,373,161,-17,38,958
09/10/99,01:50:01,409,161,-17,36,958
09/10/99,01:55:01,433,161,-17,34,958
09/10/99,02:00:01,462,172,-17,32,958
09/10/99,02:05:01,434,162,-17,32,958
09/10/99,02:10:01,398,172,-17,32,958
09/10/99,02:15:01,402,162,-17,32,958
09/10/99,02:20:01,441,172,-17,38,958
09/10/99,02:25:01,441,172,-17,40,958
09/10/99,02:30:01,364,172,-17,44,958
09/10/99,02:35:01,447,172,-17,46,958
09/10/99,02:40:01,397,172,-17,46,958
09/10/99,02:45:01,467,172,-17,44,956
09/10/99,02:50:01,447,172,-17,40,956
09/10/99,02:55:01,470,172,-17,38,956
09/10/99,03:00:01,446,172,-17,38,956
09/10/99,03:05:01,454,172,-17,38,956
09/10/99,03:10:01,455,172,-17,36,956
09/10/99,03:15:01,477,172,-17,36,956
09/10/99,03:20:01,454,174,-17,36,956
09/10/99,03:25:01,459,174,-17,36,956
09/10/99,03:30:01,432,174,-17,36,956
09/10/99,03:35:01,459,164,-17,36,956
09/10/99,03:40:01,458,174,-17,36,956
09/10/99,03:45:01,492,174,-17,38,956
09/10/99,03:50:01,425,174,-17,40,956
09/10/99,03:55:01,442,172,-17,36,956
09/10/99,04:00:01,444,172,-17,32,956
09/10/99,04:05:01,477,172,-17,30,956
09/10/99,04:10:01,491,172,-17,26,956
09/10/99,04:15:01,433,172,-17,24,956
09/10/99,04:20:01,517,172,-17,22,956
09/10/99,04:25:01,477,172,-17,20,956
09/10/99,04:30:01,477,172,-17,18,956
09/10/99,04:35:01,441,172,-17,16,956
09/10/99,04:40:01,461,172,-17,14,956
09/10/99,04:45:01,446,172,-17,14,956
09/10/99,04:50:01,440,172,-17,12,956
09/10/99,04:55:01,460,172,-17,12,956
09/10/99,05:00:01,504,172,-17,10,956
09/10/99,05:05:01,456,172,-17,8,956
09/10/99,05:10:01,504,172,-17,8,956
09/10/99,05:15:01,402,172,-17,8,956
09/10/99,05:20:01,511,172,-17,6,956
09/10/99,05:25:01,444,172,-17,6,956
09/10/99,05:30:01,452,172,-17,4,956
09/10/99,05:35:01,457,172,-17,4,956
09/10/99,05:40:01,481,156,-17,2,956
09/10/99,05:45:01,437,167,-17,2,956
09/10/99,05:50:01,464,167,-17,2,956
09/10/99,05:55:01,445,167,-17,2,956
09/10/99,06:00:01,432,167,-17,2,954
09/10/99,06:05:01,446,176,-17,2,954
09/10/99,06:10:01,414,165,-17,2,954
09/10/99,06:15:01,407,165,-17,0,954
09/10/99,06:20:01,513,165,-17,0,954
09/10/99,06:25:01,466,167,-17,0,954
09/10/99,06:30:01,473,157,-17,0,954
09/10/99,06:35:01,509,167,-17,0,954
09/10/99,06:40:01,500,168,-17,0,954
09/10/99,06:45:01,459,155,-17,0,954
09/10/99,06:50:01,488,167,-17,0,954
09/10/99,06:55:01,492,167,-17,0,954
09/10/99,07:00:01,558,167,-17,0,954
09/10/99,07:05:01,522,167,-17,0,954
09/10/99,07:10:01,457,167,-17,0,954
09/10/99,07:15:01,555,167,-17,0,954
09/10/99,07:20:01,569,167,-17,0,952
09/10/99,07:25:01,613,167,-17,0,952
09/10/99,07:30:01,497,167,-17,0,952
09/10/99,07:35:01,499,178,-19,0,952
09/10/99,07:40:01,546,166,-19,0,952
09/10/99,07:45:01,557,177,-19,0,952
09/10/99,07:50:01,579,177,-19,0,952
09/10/99,07:55:01,534,177,-19,0,952
09/10/99,08:00:01,489,177,-19,0,952
09/10/99,08:05:01,555,166,-19,0,952
09/10/99,08:10:01,577,179,-19,0,952
09/10/99,08:15:01,586,169,-19,0,952
09/10/99,08:20:01,596,166,-19,0,952
09/10/99,08:25:01,542,167,-19,0,952
09/10/99,08:30:01,607,167,-19,0,952
09/10/99,08:35:01,520,167,-19,0,952
09/10/99,08:40:01,525,167,-19,0,952
09/10/99,08:45:01,490,177,-19,0,952
09/10/99,08:50:01,514,163,-19,0,952
09/10/99,08:55:01,586,173,-19,0,952
09/10/99,09:00:01,567,172,-19,0,952
09/10/99,09:05:01,551,172,-19,0,952
09/10/99,09:10:01,672,173,-19,0,952
09/10/99,09:15:01,624,163,-19,0,952
09/10/99,09:20:01,623,174,-19,0,952
09/10/99,09:25:01,595,174,-19,0,952
09/10/99,09:30:01,541,174,-19,0,952
09/10/99,09:35:01,537,174,-19,0,952
09/10/99,09:40:01,633,174,-19,0,952
09/10/99,09:45:01,568,174,-17,0,952
09/10/99,09:50:01,556,174,-17,0,952
09/10/99,09:55:01,609,169,-17,0,952
09/10/99,10:00:01,643,166,-17,0,952
09/10/99,10:05:01,650,168,-17,0,952
09/10/99,10:10:01,633,178,-17,0,950
09/10/99,10:15:01,665,168,-17,0,950
09/10/99,10:20:01,666,179,-17,0,950
09/10/99,10:25:01,605,166,-17,0,950
09/10/99,10:30:01,611,167,-17,0,950
09/10/99,10:35:01,624,167,-17,0,950
09/10/99,10:40:01,673,179,-17,0,952
09/10/99,10:45:01,627,180,-17,0,952
09/10/99,10:50:01,613,180,-17,0,950
09/10/99,10:55:01,603,180,-17,0,950
09/10/99,11:00:01,624,180,-17,0,950
09/10/99,11:05:01,642,177,-17,0,950
09/10/99,11:10:01,667,177,-17,0,950
09/10/99,11:15:01,628,177,-17,0,950
09/10/99,11:20:01,577,177,-17,0,950
09/10/99,11:25:01,601,177,-17,0,950
09/10/99,11:30:01,659,177,-17,0,950
09/10/99,11:35:01,687,177,-17,0,950
09/10/99,11:40:01,667,176,-17,0,950
09/10/99,11:45:01,683,176,-17,0,950
09/10/99,11:50:01,623,176,-17,0,950
09/10/99,11:55:01,641,176,-17,0,950
09/10/99,12:00:01,579,176,-17,0,950
09/10/99,12:05:01,604,176,-17,0,950
09/10/99,12:10:01,584,176,-17,0,950
09/10/99,12:15:01,610,176,-17,0,950
09/10/99,12:20:01,506,176,-17,0,950
09/10/99,12:25:01,594,176,-17,0,950
09/10/99,12:30:01,604,190,-17,0,950
09/10/99,12:35:01,571,180,-17,0,950
09/10/99,12:40:01,507,180,-17,0,950
09/10/99,12:45:01,567,182,-17,0,950
09/10/99,12:50:01,645,183,-17,0,950
09/10/99,12:55:01,643,183,-17,0,950
09/10/99,13:00:01,517,183,-17,0,950
09/10/99,13:05:01,652,185,-17,0,950
09/10/99,13:10:01,612,185,-17,0,950
09/10/99,13:15:01,598,185,-17,0,950
09/10/99,13:20:01,618,185,-17,0,950
09/10/99,13:25:01,629,174,-17,0,950
09/10/99,13:30:01,635,174,-17,0,950
09/10/99,13:35:01,587,174,-17,0,950
09/10/99,13:40:01,644,185,-17,0,950
09/10/99,13:45:01,627,185,-15,0,950
09/10/99,13:50:01,549,185,-15,0,950
09/10/99,13:55:01,616,185,-15,0,950
09/10/99,14:00:01,601,185,-15,0,950
09/10/99,14:05:01,538,185,-15,0,950
09/10/99,14:10:01,518,171,-15,0,950
09/10/99,14:15:01,551,171,-15,0,948
09/10/99,14:20:01,500,183,-15,0,948
09/10/99,14:25:01,582,173,-15,0,948
09/10/99,14:30:01,576,173,-15,0,948
09/10/99,14:35:01,605,173,-15,0,948
09/10/99,14:40:01,561,173,-15,0,948
09/10/99,14:45:01,710,173,-15,0,948
09/10/99,14:50:01,682,173,-15,0,948
09/10/99,14:55:01,714,174,-15,0,948
09/10/99,15:00:01,661,174,-15,0,948
09/10/99,15:05:01,611,174,-15,0,948
09/10/99,15:10:01,628,185,-15,0,948
09/10/99,15:15:01,627,185,-15,0,948
09/10/99,15:20:01,543,187,-15,0,950
09/10/99,15:25:01,608,187,-15,0,950
09/10/99,15:30:01,632,177,-15,0,948
09/10/99,15:35:01,583,182,-15,0,948
09/10/99,15:40:01,603,182,-15,0,948
09/10/99,15:45:01,654,172,-15,0,948
09/10/99,15:50:01,721,172,-15,0,948
09/10/99,15:55:01,739,172,-15,0,948
09/10/99,16:00:01,646,169,-15,0,948
09/10/99,16:05:01,736,180,-15,0,948
09/10/99,16:10:01,671,180,-15,0,948
09/10/99,16:15:01,668,180,-15,0,948
09/10/99,16:20:01,621,180,-15,0,948
09/10/99,16:25:01,620,180,-15,0,948
09/10/99,16:30:01,679,169,-15,0,948
09/10/99,16:35:01,610,179,-15,0,948
09/10/99,16:40:01,703,167,-15,0,948
09/10/99,16:45:01,671,168,-15,0,948
09/10/99,16:50:01,739,171,-15,0,948
09/10/99,16:55:01,739,171,-15,0,948
09/10/99,17:00:01,622,171,-15,0,948
09/10/99,17:05:01,782,171,-15,0,948
09/10/99,17:10:01,639,169,-15,0,948
09/10/99,17:15:01,467,178,-15,0,948
09/10/99,17:20:01,568,167,-15,0,948
09/10/99,17:25:01,731,168,-15,0,948
09/10/99,17:30:01,697,161,-15,0,948
09/10/99,17:35:01,508,175,-15,0,948
09/10/99,17:40:01,681,175,-15,0,948
09/10/99,17:45:01,610,175,-15,0,948
09/10/99,17:50:01,686,175,-15,0,948
09/10/99,17:55:01,495,176,-15,0,948
09/10/99,18:00:01,550,164,-15,0,948
09/10/99,18:05:01,685,177,-15,0,948
09/10/99,18:10:01,697,166,-15,0,948
09/10/99,18:15:01,675,176,-15,0,948
09/10/99,18:20:01,621,176,-15,0,948
09/10/99,18:25:01,686,176,-15,0,948
09/10/99,18:30:01,702,178,-15,0,948
09/10/99,18:35:01,739,179,-15,0,948
09/10/99,18:40:01,720,180,-15,0,948
09/10/99,18:45:01,685,183,-15,0,948
09/10/99,18:50:01,708,173,-15,0,948
09/10/99,18:55:01,612,173,-15,0,948
09/10/99,19:00:01,592,183,-15,0,948
09/10/99,19:05:01,712,184,-15,0,948
09/10/99,19:10:01,587,174,-15,0,948
09/10/99,19:15:01,620,169,-15,0,948
09/10/99,19:20:01,651,180,-15,0,948
09/10/99,19:25:01,688,171,-15,0,948
09/10/99,19:30:01,693,171,-15,0,948
09/10/99,19:35:01,578,171,-15,0,948
09/10/99,19:40:01,699,171,-15,0,948
09/10/99,19:45:01,690,179,-15,0,948
09/10/99,19:50:01,737,169,-15,0,948
09/10/99,19:55:01,611,169,-15,0,948
09/10/99,20:00:01,594,169,-15,2,948
09/10/99,20:05:01,709,171,-15,2,948
09/10/99,20:10:01,654,171,-15,2,948
09/10/99,20:15:01,604,171,-15,4,948
09/10/99,20:20:01,717,171,-15,4,948
09/10/99,20:25:01,583,171,-15,4,948
09/10/99,20:30:01,590,159,-15,4,948
09/10/99,20:35:01,572,170,-15,6,948
09/10/99,20:40:01,602,170,-15,6,948
09/10/99,20:45:01,642,170,-15,6,948
09/10/99,20:50:01,735,170,-15,6,948
09/10/99,20:55:01,637,170,-15,8,948
09/10/99,21:00:01,649,170,-15,8,948
09/10/99,21:05:01,747,174,-15,10,948
09/10/99,21:10:01,663,162,-15,10,948
09/10/99,21:15:01,637,162,-15,12,948
09/10/99,21:20:01,630,170,-15,12,948
09/10/99,21:25:01,579,160,-15,12,948
09/10/99,21:30:01,555,167,-15,14,948
09/10/99,21:35:01,539,167,-15,16,948
09/10/99,21:40:01,575,177,-15,14,948
09/10/99,21:45:01,672,177,-15,16,948
09/10/99,21:50:01,563,164,-15,16,948
09/10/99,21:55:01,572,164,-15,16,948
09/10/99,22:00:01,727,164,-15,16,948
09/10/99,22:05:01,673,164,-15,16,948
09/10/99,22:10:01,561,164,-15,16,948
09/10/99,22:15:01,636,167,-15,18,948
09/10/99,22:20:01,754,155,-15,20,948
09/10/99,22:25:01,675,166,-15,20,948
09/10/99,22:30:01,566,159,-15,20,948
09/10/99,22:35:01,606,159,-15,20,948
09/10/99,22:40:01,626,169,-15,20,948
09/10/99,22:45:01,550,166,-15,20,948
09/10/99,22:50:01,566,162,-15,20,948
09/10/99,22:55:01,625,173,-15,20,948
09/10/99,23:00:01,608,163,-15,20,948
09/10/99,23:05:01,587,163,-15,20,948
09/10/99,23:10:01,599,163,-15,22,948
09/10/99,23:15:01,634,163,-15,20,948
09/10/99,23:20:01,606,163,-15,20,948
09/10/99,23:25:01,678,176,-15,22,948
09/10/99,23:30:01,766,165,-15,22,948
09/10/99,23:35:01,664,164,-15,24,948
09/10/99,23:40:01,644,163,-15,24,948
09/10/99,23:45:01,628,163,-15,24,948
09/10/99,23:50:01,604,163,-15,24,948
09/10/99,23:55:01,711,163,-15,26,948
09/11/99,00:00:01,635,162,-15,26,948
